Location: Bartlow
(52.0833°N, 0.3167°E)
Time: 01:04:15
(UTC+00:00)

CZ-4C R/B - Visible Passes

Search period start: 24 April 2024 00:00
Search period end: 04 May 2024 00:00
Orbit: 532 x 1462 km, 63.4° (Epoch: 23 April)

Date Brightness Start Highest point End Pass type
(mag) Time Alt. Az. Time Alt. Az. Time Alt. Az.
24 Apr 3.2 20:06:06 10° NW 20:13:03 69° SW 20:21:31 10° SSE visible
24 Apr 4.7 21:55:31 10° WNW 22:00:53 21° WSW 22:06:51 10° SSW visible
25 Apr 3.9 20:38:28 10° NW 20:45:11 43° WSW 20:53:07 10° S visible
25 Apr 5.3 22:30:50 10° W 22:32:25 11° WSW 22:34:02 10° WSW visible
26 Apr 4.6 21:11:13 10° WNW 21:17:05 26° WSW 21:23:42 10° SSW visible
27 Apr 3.8 19:54:25 10° NW 20:01:16 50° SW 20:09:26 10° SSE visible
27 Apr 5.2 21:45:11 10° WNW 21:48:42 14° WSW 21:52:27 10° SW visible
28 Apr 4.5 20:27:01 10° WNW 20:33:14 30° WSW 20:40:22 10° S visible
29 Apr 5.2 21:00:23 10° WNW 21:04:56 17° WSW 21:09:53 10° SW visible
01 May 5.1 20:15:51 10° WNW 20:21:07 21° WSW 20:26:57 10° SSW visible
02 May 5.6 20:51:48 10° W 20:52:35 10° WSW 20:53:23 10° WSW visible
